Wind_Speed
15 16 17 19 21 21 19 17 17 18 18 18 18 17 16 14 13 12 12 13 13 13 13 13 14 15 16 16 17 17 17 16 16 16 15 15 15 14 14 15 15 16
15 15 15 16 19 20 20 19 20 19 18 18 18 17 15 14 14 13 13 13 13 13 13 14 14 15 16 16 16 17 18 18 17 16 17 16 16 15 15 15 16 17
16 16 16 16 17 18 19 20 21 21 20 18 17 16 16 16 16 15 14 14 13 13 13 13 13 14 15 16 16 17 18 19 19 18 18 18 18 17 16 16 17 17
17 16 16 16 16 16 17 18 18 19 19 18 17 17 17 17 18 18 16 15 14 14 14 14 13 13 15 16 18 19 20 20 21 20 20 20 20 19 17 16 16 16
17 16 15 14 15 15 15 15 16 16 17 16 16 17 17 18 19 18 17 16 16 16 16 16 16 16 16 17 18 20 21 22 22 22 21 20 19 18 16 15 14 14
17 17 16 15 15 15 15 16 16 15 15 15 15 15 16 16 17 17 16 17 17 16 16 16 16 17 17 17 18 19 21 22 23 22 21 19 18 16 15 14 14 14
20 20 19 18 17 17 16 16 16 15 14 13 15 15 15 16 17 18 17 17 16 15 15 15 16 17 17 17 18 19 20 21 22 21 20 18 17 16 15 15 15 15
22 22 21 20 20 19 19 18 17 15 13 14 16 17 16 16 17 17 16 14 12 12 14 15 16 17 17 17 18 19 20 21 21 20 19 17 16 16 16 15 15 15
24 23 23 22 21 21 21 20 19 16 14 15 17 16 14 14 16 15 13 11 11 13 16 17 17 17 17 16 16 17 19 20 19 18 17 16 15 15 16 15 15 15
25 24 24 23 21 22 22 22 19 16 14 14 15 14 13 15 16 15 13 13 15 17 19 19 16 14 14 13 12 14 17 19 18 17 16 16 15 15 15 15 15 15
25 24 24 22 21 22 23 22 18 15 14 14 13 14 14 15 16 16 15 16 17 17 17 16 14 12 12 11 12 14 17 19 19 19 18 17 16 16 15 15 15 15
22 23 24 23 23 23 24 23 20 16 15 15 15 16 16 17 19 19 17 17 18 16 14 13 13 13 13 13 14 16 19 20 21 20 19 18 17 16 15 15 16 16
21 21 24 25 24 24 25 24 21 18 18 18 19 19 20 22 23 21 20 19 19 16 14 13 14 14 15 16 17 18 19 21 21 20 19 18 18 17 16 16 16 16
21 21 22 23 24 25 25 25 25 23 22 20 19 21 23 23 23 22 21 21 20 17 15 14 14 15 16 18 19 19 20 21 21 20 20 19 19 18 18 17 17 17
19 21 22 23 26 27 25 25 26 25 22 20 18 20 21 22 22 21 20 20 20 19 17 15 15 15 16 18 19 20 21 21 21 20 20 20 19 19 18 17 17 17
18 20 20 20 23 22 18 17 17 17 18 18 18 19 20 20 20 19 19 19 20 19 17 15 15 16 17 18 19 20 21 21 21 21 20 19 19 18 18 17 17 18
16 18 19 19 19 18 16 15 15 15 16 18 18 19 19 19 18 18 19 19 19 19 17 15 16 17 18 18 19 20 20 20 20 19 19 18 18 18 18 18 18 19
18 18 19 20 19 19 18 17 17 16 16 17 17 18 18 18 18 18 18 18 19 19 18 16 16 17 17 18 18 18 18 18 18 18 18 18 18 19 19 19 20 22
19 19 19 19 20 20 19 19 18 17 16 17 18 19 19 18 19 19 19 19 20 20 18 17 17 17 18 19 19 19 18 18 18 18 19 20 20 21 22 22 23 24
20 20 19 19 20 21 20 20 20 19 18 19 19 20 20 20 20 20 20 21 21 20 18 18 18 19 21 21 21 20 20 19 20 20 21 22 23 24 25 25 26 27
24 22 21 19 20 21 21 22 22 22 22 22 22 22 22 22 22 21 21 21 22 21 20 20 22 23 24 24 23 23 23 23 24 23 23 24 25 26 27 28 29 30
26 25 24 23 23 24 24 24 24 23 23 23 24 24 25 25 24 23 23 24 24 23 23 25 26 25 26 27 26 26 27 27 27 26 26 26 27 28 29 30 32 33
25 25 25 26 27 27 26 26 26 26 25 25 25 24 24 24 22 23 25 26 27 27 27 29 28 26 27 29 29 28 28 28 28 28 28 29 30 31 31 33 35 36
26 27 27 28 29 29 29 29 31 31 31 31 30 29 28 25 22 23 27 28 28 28 29 30 30 28 29 30 32 32 31 31 32 34 35 35 36 36 37 38 39 41
30 29 29 31 32 31 31 32 33 33 34 34 34 34 33 31 28 29 32 32 30 28 28 30 31 31 31 33 35 36 37 39 40 41 41 41 41 41 41 42 43 45
35 33 32 33 35 34 34 35 36 37 37 37 35 34 35 35 34 34 35 36 35 33 33 34 35 35 36 37 39 41 42 44 45 45 45 45 44 44 44 45 47 49
Wind_Direction
239 240 235 225 223 226 224 219 219 223 229 233 232 230 228 229 235 245 255 259 260 259 257 257 258 258 257 254 250 248 247 247 248 247 245 241 239 239 243 247 249 251
238 239 235 225 221 225 230 232 233 232 232 234 236 234 233 235 242 251 259 260 257 255 255 254 255 256 256 255 252 250 250 250 249 248 245 243 241 243 248 251 252 253
240 241 239 234 230 230 234 238 241 239 236 237 237 237 238 241 245 251 256 256 251 249 251 253 254 257 259 259 257 255 254 253 251 248 245 243 243 247 253 256 255 255
237 241 243 245 246 245 244 243 242 240 239 240 242 245 248 247 249 250 250 250 249 249 250 251 255 261 263 262 260 258 257 256 253 250 247 245 246 250 255 257 256 255
236 241 246 251 256 258 256 250 244 239 237 240 245 252 255 256 258 256 251 251 255 257 256 255 257 261 264 264 262 258 257 256 254 252 249 248 249 252 255 255 254 252
244 245 246 248 252 255 255 253 249 244 241 244 249 254 258 260 261 260 256 255 258 261 261 260 260 261 262 264 263 261 258 255 254 252 250 248 248 248 246 245 245 245
253 253 251 249 248 247 247 248 248 248 248 248 248 250 252 253 254 255 255 256 258 261 263 262 262 263 264 264 265 264 261 256 253 251 248 245 244 242 238 236 236 237
258 260 260 258 255 251 248 246 244 247 249 247 246 245 245 246 249 251 253 257 261 265 267 269 268 267 267 266 266 265 264 260 256 252 247 243 239 238 235 233 231 233
258 261 264 264 260 254 250 246 243 244 245 245 246 244 241 243 247 249 254 261 265 270 276 280 278 275 271 269 266 263 261 260 256 251 245 238 234 234 234 233 233 234
255 258 262 265 262 254 250 248 244 241 240 243 246 247 248 252 255 257 261 264 266 273 281 282 281 279 275 270 263 254 252 251 246 240 235 231 228 229 232 234 236 236
253 256 259 261 260 255 251 248 241 233 234 240 241 244 251 260 264 263 263 264 268 275 280 278 276 277 275 267 255 246 243 242 238 234 232 229 225 225 228 231 233 235
252 254 255 255 256 256 253 249 241 236 238 236 228 231 243 255 262 265 266 268 271 273 269 265 265 270 270 262 251 243 240 238 236 233 230 227 226 227 228 230 232 233
247 250 252 255 257 255 252 249 246 243 242 237 231 234 243 252 260 267 271 272 271 265 255 254 261 268 267 259 251 246 239 235 233 231 228 228 231 232 232 232 233 234
241 244 250 253 253 253 254 255 253 248 244 243 242 244 248 255 261 266 268 267 264 257 252 256 263 267 266 259 254 247 240 235 233 231 232 234 235 236 235 234 233 235
243 247 252 251 250 252 257 259 256 248 243 244 246 247 251 258 263 266 265 261 258 258 260 264 265 264 262 258 253 246 239 236 235 235 238 240 241 241 239 236 235 236
251 249 248 247 246 247 251 253 249 242 239 242 247 250 254 259 264 267 264 261 262 263 261 259 259 256 253 250 247 241 237 236 236 237 238 240 241 241 240 239 238 237
251 247 244 245 247 248 249 250 250 245 242 246 250 253 256 258 260 261 260 260 263 263 259 254 251 249 246 244 242 240 238 237 236 236 236 237 238 238 238 237 236 235
240 241 246 249 250 250 251 255 257 255 252 254 255 257 258 259 258 258 259 259 260 260 257 251 246 245 244 242 241 240 240 240 240 239 238 238 240 241 241 239 237 236
236 240 246 249 247 246 249 253 254 255 259 261 262 262 262 261 260 259 258 257 255 252 247 243 244 247 247 245 241 238 238 241 244 246 246 246 247 250 250 247 245 244
234 237 243 249 250 248 249 250 248 249 251 252 253 255 256 257 257 256 254 250 244 239 238 242 247 249 248 246 243 239 239 242 246 249 250 251 252 253 254 253 253 252
231 233 235 241 247 249 249 248 248 249 247 246 245 245 246 249 250 249 248 244 238 237 241 245 246 248 249 247 243 242 243 246 249 251 252 253 255 256 257 258 259 260
235 238 238 240 244 248 251 251 250 248 245 243 243 244 245 246 246 245 245 244 244 245 246 247 246 246 248 247 245 246 249 251 254 256 256 257 258 261 262 263 264 266
244 246 247 248 249 251 255 257 255 250 245 241 239 240 243 244 245 248 248 247 248 248 248 249 248 245 246 249 249 250 252 254 256 259 261 262 264 266 268 268 268 270
248 249 251 253 253 253 256 257 255 250 247 245 244 244 244 243 243 247 247 247 250 253 253 252 251 248 247 249 250 251 253 256 260 264 266 266 267 269 270 271 273 275
250 253 254 256 255 253 252 253 254 254 253 253 253 254 252 248 244 243 243 245 250 254 254 252 250 249 249 249 251 254 258 262 266 268 269 269 270 272 274 276 278 279
255 257 259 260 259 256 254 256 260 261 261 258 257 257 256 253 250 247 246 245 245 244 245 248 250 252 254 255 257 260 263 266 269 270 270 271 272 274 276 277 278 280
Height
5765 5766 5768 5769 5770 5770 5770 5771 5772 5773 5774 5775 5776 5778 5779 5781 5781 5782 5783 5784 5784 5785 5786 5786 5786 5786 5787 5787 5788 5788 5788 5789 5789 5789 5789 5789 5790 5790 5791 5791 5792 5792
5764 5764 5766 5768 5768 5769 5769 5770 5770 5771 5772 5773 5775 5776 5778 5779 5780 5780 5781 5782 5783 5784 5784 5784 5784 5784 5784 5785 5785 5785 5786 5786 5786 5787 5787 5787 5788 5788 5789 5789 5790 5790
5762 5762 5763 5765 5766 5767 5768 5768 5769 5770 5771 5772 5773 5775 5776 5777 5777 5778 5779 5780 5781 5782 5782 5782 5782 5782 5782 5782 5782 5783 5783 5783 5784 5784 5785 5785 5786 5786 5787 5787 5787 5787
5759 5761 5762 5763 5764 5765 5766 5767 5768 5769 5770 5771 5772 5773 5773 5774 5775 5776 5777 5778 5779 5779 5780 5780 5780 5780 5780 5780 5781 5781 5781 5781 5782 5782 5782 5783 5783 5784 5784 5785 5785 5785
5758 5759 5760 5762 5763 5764 5765 5766 5766 5767 5768 5769 5770 5771 5771 5772 5773 5774 5776 5777 5776 5776 5777 5777 5778 5778 5778 5778 5779 5779 5779 5780 5780 5780 5780 5781 5782 5782 5783 5783 5783 5783
5756 5757 5758 5759 5761 5762 5763 5764 5765 5766 5767 5768 5769 5769 5770 5771 5772 5773 5774 5774 5774 5774 5775 5775 5775 5776 5776 5776 5776 5777 5777 5777 5778 5778 5779 5779 5780 5781 5781 5781 5781 5781
5754 5754 5756 5757 5758 5759 5760 5761 5763 5765 5767 5768 5768 5769 5769 5770 5770 5771 5771 5771 5772 5773 5773 5773 5773 5773 5773 5774 5774 5774 5775 5775 5776 5776 5777 5777 5778 5778 5779 5779 5780 5780
5752 5753 5754 5755 5756 5757 5758 5759 5761 5764 5765 5766 5767 5767 5768 5768 5768 5768 5768 5769 5770 5770 5770 5770 5771 5771 5771 5772 5772 5773 5773 5773 5774 5774 5775 5775 5776 5776 5777 5777 5778 5778
5750 5751 5752 5753 5754 5755 5755 5757 5759 5762 5763 5764 5764 5765 5766 5766 5766 5766 5766 5766 5767 5768 5768 5768 5768 5769 5769 5770 5770 5771 5771 5772 5772 5773 5773 5774 5774 5774 5775 5775 5776 5776
5748 5748 5749 5750 5752 5752 5753 5754 5757 5759 5761 5761 5762 5762 5763 5763 5763 5763 5763 5764 5765 5765 5765 5765 5766 5766 5767 5767 5768 5768 5769 5769 5770 5771 5771 5772 5772 5773 5773 5773 5774 5774
5745 5746 5747 5748 5749 5749 5750 5752 5754 5757 5758 5759 5759 5759 5760 5760 5760 5760 5761 5761 5762 5762 5762 5762 5763 5763 5764 5764 5765 5765 5766 5767 5767 5768 5769 5769 5770 5770 5771 5771 5771 5772
5742 5743 5744 5745 5746 5746 5747 5748 5751 5753 5754 5755 5756 5756 5757 5757 5757 5758 5759 5759 5759 5759 5759 5759 5760 5760 5761 5761 5762 5763 5764 5764 5765 5765 5766 5767 5767 5768 5768 5769 5769 5769
5740 5741 5742 5742 5743 5743 5744 5745 5748 5750 5751 5752 5753 5753 5754 5754 5755 5755 5756 5756 5756 5756 5756 5756 5757 5757 5758 5759 5759 5760 5761 5762 5762 5763 5764 5764 5765 5765 5766 5766 5766 5767
5738 5739 5740 5740 5741 5741 5741 5742 5744 5746 5747 5748 5749 5750 5750 5751 5752 5752 5753 5753 5753 5754 5754 5754 5754 5754 5755 5756 5757 5758 5759 5760 5760 5761 5761 5762 5762 5763 5763 5764 5764 5764
5735 5736 5737 5738 5738 5739 5740 5740 5741 5743 5745 5746 5746 5747 5747 5747 5748 5748 5749 5750 5750 5751 5751 5751 5752 5752 5753 5754 5755 5756 5756 5757 5757 5758 5759 5759 5760 5760 5761 5761 5761 5762
5732 5733 5734 5735 5735 5736 5738 5738 5738 5740 5742 5743 5743 5743 5744 5744 5744 5745 5746 5746 5747 5748 5748 5749 5749 5750 5751 5752 5752 5753 5753 5754 5754 5755 5756 5756 5757 5758 5758 5758 5759 5759
5729 5730 5730 5732 5733 5734 5735 5736 5736 5737 5738 5739 5739 5740 5740 5741 5741 5742 5742 5743 5744 5745 5745 5746 5747 5748 5748 5749 5749 5750 5750 5751 5752 5752 5753 5753 5754 5754 5755 5755 5756 5756
5727 5727 5728 5729 5730 5731 5732 5733 5734 5735 5735 5736 5736 5736 5737 5737 5738 5739 5740 5741 5741 5742 5742 5743 5744 5745 5746 5746 5746 5747 5748 5748 5749 5749 5750 5750 5751 5751 5752 5752 5753 5753
5724 5725 5725 5726 5727 5729 5730 5731 5731 5731 5732 5733 5733 5734 5734 5735 5736 5737 5738 5738 5739 5739 5740 5741 5742 5743 5743 5743 5744 5744 5745 5745 5746 5747 5747 5748 5748 5749 5749 5749 5750 5750
5721 5722 5723 5724 5725 5726 5727 5728 5728 5729 5729 5730 5731 5731 5732 5733 5734 5735 5735 5735 5736 5737 5737 5739 5740 5740 5740 5741 5741 5742 5742 5743 5743 5744 5744 5745 5745 5745 5746 5746 5747 5747
5718 5719 5720 5722 5722 5723 5724 5725 5725 5726 5727 5728 5728 5729 5729 5730 5731 5732 5733 5733 5734 5734 5735 5735 5736 5736 5737 5737 5738 5738 5738 5739 5739 5740 5741 5741 5741 5742 5742 5743 5743 5743
5715 5716 5717 5718 5719 5720 5721 5721 5723 5724 5725 5725 5725 5726 5726 5726 5728 5729 5730 5731 5731 5731 5731 5731 5731 5732 5733 5733 5734 5734 5734 5734 5735 5736 5736 5736 5737 5737 5738 5738 5739 5739
5714 5714 5715 5715 5716 5717 5718 5718 5719 5721 5721 5721 5722 5722 5722 5723 5725 5726 5726 5727 5727 5727 5727 5726 5727 5728 5728 5728 5729 5730 5730 5730 5731 5731 5731 5732 5732 5732 5733 5733 5733 5733
5710 5711 5712 5712 5713 5714 5714 5714 5714 5716 5717 5717 5718 5718 5718 5719 5721 5722 5722 5722 5722 5723 5723 5722 5723 5724 5724 5724 5724 5725 5725 5725 5726 5726 5727 5727 5727 5727 5727 5727 5727 5727
5707 5708 5708 5709 5710 5710 5710 5710 5709 5711 5712 5713 5714 5714 5714 5715 5716 5716 5716 5717 5718 5719 5719 5718 5718 5718 5719 5719 5719 5719 5720 5720 5720 5720 5721 5721 5721 5720 5720 5721 5721 5720
5702 5703 5704 5705 5705 5706 5707 5707 5707 5707 5707 5708 5710 5710 5710 5710 5710 5711 5711 5712 5713 5714 5712 5712 5712 5712 5713 5714 5714 5714 5714 5714 5714 5714 5714 5714 5714 5714 5714 5714 5714 5714